Location: Mahannah Oil Field
(37.4664°N, 96.6003°W)
Time: 10:20:29
(UTC+00:00)

Altair - Pass Details

Date: 27 January 2021
Orbit: 1501 x 1682 km, 47.2° (Epoch: 24 February)

Event Time Altitude Azimuth Distance (km) Brightness Sun altitude
Exits shadow 09:47:24 55° 103° (ESE) 1,942 8.0 -44.8°
Drops below altitude 10° 09:55:40 10° 62° (ENE) 3,942 10.2 -43.2°
Sets 09:58:55 0° 59° (ENE) 4,938 10.9 -42.6°
